Burlington, CO

8:25 AM MST on November 21, 2019 (GMT -0700)
Kit Carson County

Weather History for KITR - October, 2019

Change the Weather History Date:

Sunday, October 20, 2019

  Actual Average Record
Temperature  
Mean Temperature 50 °F 49 °F  
Max Temperature 62 °F 64 °F 90 °F (1921)
Min Temperature 38 °F 35 °F 20 °F (1982)
Degree Days  
Heating Degree Days 16    
Moisture  
Dew Point 20 °F    
Average Humidity 36    
Maximum Humidity 56    
Minimum Humidity 12    
Precipitation  
Precipitation 0.00 in 0.05 in 0.63 in (1924)
Month to date precipitation 0.01 0.81  
Year to date precipitation 14.36 16.10  
Sea Level Pressure  
Sea Level Pressure 29.63 in    
Wind  
Wind Speed 20 mph (WNW)    
Max Wind Speed 34 mph    
Max Gust Speed 50 mph    
Visibility 10 miles    
Events      
T = Trace of Precipitation, MM = Missing Value Source: NWS Daily Summary

Daily Weather History Graph

Daily Weather History Graph

Search for Another Location

Airport or City:

Astronomy

Oct. 20, 2019 Rise Set
Actual Time 7:03 AM MDT 6:03 PM MDT
Civil Twilight 6:36 AM MDT 6:30 PM MDT
Nautical Twilight 6:05 AM MDT 7:01 PM MDT
Astronomical Twilight 5:34 AM MDT 7:32 PM MDT
Moon 11:16 PM MDT (10/20) 1:32 PM MDT (10/20)
Length of Visible Light 11h 53m
Length of Day
10h 59m
Waning Gibbous, 58% of the Moon is Illuminated
Oct 20
Waning Gibbous
Oct 21
Last Quarter
Oct 27
New
Nov 4
First Quarter
Nov 12
Full

Hourly Weather History & Observations

Time (MDT) Temp. Windchill Dew Point Humidity Pressure Visibility Wind Dir Wind Speed Gust Speed Precip Events Conditions
12:53 AM 50.0 °F - 26.1 °F 39% 29.50 in 10.0 mi South 21.9 mph 29.9 mph N/A   Clear
1:53 AM 48.9 °F - 27.0 °F 43% 29.47 in 10.0 mi South 19.6 mph - N/A   Clear
2:53 AM 46.0 °F 38.8 °F 27.0 °F 47% 29.45 in 10.0 mi South 18.4 mph - N/A   Clear
3:53 AM 45.0 °F 37.9 °F 28.0 °F 52% 29.44 in 10.0 mi South 16.1 mph - N/A   Clear
4:53 AM 46.9 °F - 26.1 °F 44% 29.44 in 10.0 mi SSW 15.0 mph - N/A   Clear
5:14 AM 46.9 °F - 25.0 °F 42% 29.63 in 10.0 mi WNW 18.4 mph 35.7 mph N/A   Clear
5:53 AM 46.9 °F - 26.1 °F 44% 29.56 in 10.0 mi NNW 16.1 mph 24.2 mph N/A   Clear
6:53 AM 43.0 °F 37.2 °F 24.1 °F 47% 29.62 in 10.0 mi NNW 10.4 mph - N/A   Clear
7:53 AM 37.9 °F 32.1 °F 23.0 °F 55% 29.64 in 10.0 mi NW 8.1 mph - N/A   Clear
8:53 AM 48.9 °F - 21.9 °F 35% 29.62 in 10.0 mi NW 10.4 mph - N/A   Clear
9:53 AM 55.0 °F - 12.9 °F 19% 29.61 in 10.0 mi NNW 24.2 mph 33.4 mph N/A   Overcast
10:53 AM 53.1 °F - 12.9 °F 20% 29.62 in 10.0 mi NW 20.7 mph - N/A   Overcast
11:53 AM 53.1 °F - 10.9 °F 19% 29.62 in 10.0 mi WNW 19.6 mph 24.2 mph N/A   Overcast
12:53 PM 57.0 °F - 9.0 °F 15% 29.60 in 10.0 mi WNW 16.1 mph - N/A   Partly Cloudy
1:53 PM 59.0 °F - 5.0 °F 12% 29.57 in 10.0 mi West 20.7 mph 34.5 mph N/A   Clear
2:53 PM 60.1 °F - 7.0 °F 12% 29.58 in 10.0 mi West 23.0 mph 36.8 mph N/A   Partly Cloudy
3:53 PM 57.0 °F - 8.1 °F 14% 29.62 in 10.0 mi NW 24.2 mph 40.3 mph N/A   Scattered Clouds
4:53 PM 54.0 °F - 12.0 °F 19% 29.68 in 10.0 mi WNW 29.9 mph 40.3 mph N/A   Clear
5:53 PM 48.9 °F - 21.9 °F 35% 29.74 in 8.0 mi WNW 28.8 mph 49.5 mph N/A   Mostly Cloudy
6:53 PM 48.9 °F - 21.0 °F 33% 29.76 in 10.0 mi NW 34.5 mph 47.2 mph N/A   Mostly Cloudy
7:53 PM 43.0 °F 34.5 °F 28.0 °F 56% 29.81 in 10.0 mi NW 19.6 mph 27.6 mph N/A   Clear
8:53 PM 45.0 °F 36.0 °F 24.1 °F 44% 29.78 in 10.0 mi NW 25.3 mph 39.1 mph N/A   Clear
9:53 PM 44.1 °F 34.0 °F 25.0 °F 47% 29.76 in 10.0 mi NW 29.9 mph 39.1 mph N/A   Clear
10:53 PM 42.1 °F 31.9 °F 25.0 °F 51% 29.78 in 10.0 mi NW 26.5 mph 36.8 mph N/A   Clear
11:53 PM 42.1 °F 31.5 °F 24.1 °F 49% 29.76 in 10.0 mi NW 28.8 mph 40.3 mph N/A   Clear